Regional Weather Roundup
Issued by NWS Newport/Morehead, NC

Current Version | Previous Version | Graphics & Text | Print | Product List | Glossary Off
Versions: 1 2 3 4 5 6 7 8 9 10 11 12 13 14 15 16 17 18 19 20 21 22 23 24 25 26 27 28 29 30 31 32 33 34 35 36 37 38 39 40 41 42 43 44 45 46 47 48 49 50
000 ASUS42 KMHX 252313 RWRMHX WEATHER ROUNDUP FOR EASTERN NORTH CAROLINA NATIONAL WEATHER SERVICE NEWPORT/MOREHEAD CITY NC 700 PM EDT MON MAY 25 2015 NOTE: "FAIR" INDICATES FEW OR NO CLOUDS BELOW 12,000 FEET WITH NO SIGNIFICANT WEATHER AND/OR OBSTRUCTIONS TO VISIBILITY NCZ015>017-031-032-045>047-102-103-260000- NORTH COAST CITY SKY/WX TMP DP RH WIND PRES REMARKS EDENTON SUNNY 77 60 55 S10G17 30.29S ELIZABETH CITY SUNNY 77 56 48 S9 30.29S KITTY HAWK CLEAR 74 57 55 S6 30.30S MANTEO SUNNY 74 60 60 S16 30.31S $$ NCZ045>047-081-094-103-104-260000- CENTRAL COAST CITY SKY/WX TMP DP RH WIND PRES REMARKS FRISCO SUNNY 74 61 63 S10 30.32S SWANQUARTER N/A 77 N/A N/A S13 30.27S $$ NCZ095-097-098-100-101-260000- SOUTHERN COAST CITY SKY/WX TMP DP RH WIND PRES REMARKS BEAUFORT SUNNY 74 62 66 S12 30.31S CEDAR ISLAND N/A 77 N/A N/A S10G16 30.36S JACKSONVILLE MOSUNNY 76 60 57 S8 30.30R PINEY ISLAND CLEAR N/A N/A N/A S8 30.31S WILMINGTON MOSUNNY 76 62 62 SE7 30.29S $$ NCZ011>013-027>030-043-044-078>080-089-090>093-098-260000- COASTAL PLAIN CITY SKY/WX TMP DP RH WIND PRES REMARKS AHOSKIE SUNNY 78 56 46 S7 30.26S CLINTON SUNNY 80 63 55 CALM 30.27S ELIZABETHTOWN SUNNY 81 58 45 SE8 30.26F GOLDSBORO SUNNY 81 61 50 S12 30.24S GREENVILLE SUNNY 81 59 47 S12 30.28S HAVELOCK MOSUNNY 75 60 59 S9 30.31S KENANSVILLE SUNNY 78 56 47 CALM 30.29S KINSTON SUNNY 79 59 50 S10G16 30.29S NEW BERN SUNNY 77 60 55 S10 30.31S RICHLANDS SUNNY 79 57 47 S10 30.30S ROCKY MOUNT SUNNY 82 56 40 S5 30.25F WASHINGTON SUNNY 78 57 48 S8 30.29R WHITEVILLE SUNNY 78 61 55 S8 30.27S $$ AMZ130-135-150-152-154-156-158-170-250-252-270-ANZ085-086-088-633-658-670-260000- MARINE OBSERVATIONS STATION/POSITION TIME TEMP WIND PRES WAVE SWELL AIR SEA DIR/SP/G HT/PER HT/PER (UTC) (F) (DEG/KT/KT) (MB) (FT/S) (FT/S) CHESAPEAKE LIGHT 2200 69 160/ 20/ 23 1026.1 64 E VA BEACH 2250 67 65 140/ 6/ 6 1026.7 1/ 8 2/ 8 DUCK 2200 71 65 140/ 13/ 17 1025.1 2 E DUCK 2211 66 N/A 2/ 8 OREGON INLET 2200 74 77 180/ 12/ 15 1026.6 13E OREGON INLT 2300 70 N/A 1/ 7 HATTERAS CG 2200 75 76 160/ 9/ 11 1026.2 DIAMOND BUOY 2250 75 77 160/ 12/ 16 1026.7 2/ 8 2/ 8 CAPE LOOKOUT 2300 74 160/ 7/ 9 1026.2 BEAUFORT LAB 2200 75 75 160/ 7/ 10 1025.6 27 SE WRIGHTSVLE 2200 73 77 160/ 8/ 10 N/A 5 SE WRIGHTSVLE 2208 76 77 180/ 8/ 12 1025.8 225 S CAPE HAT 2250 75 75 130/ 12/ 14 1025.9 3/ 6 2/ 6 41 SE CHARLESTON 2250 76 76 90/ 12/ 14 1024.1 4/ 6 3/ 6 $$

USA.gov is the U.S. government's official web portal to all federal, state and local government web resources and services.